JBU631 KBOS-KISP

Flight info

Callsign JBU631
Flight time 0h 36m
Altitude 20000
Route SSOXS7 SSOXS BUZRD SEY ARCAV ORCHA CCC
Aircraft A320/M-SDE3FGHIRWY/LB1

Departure

Time 2026-05-06 23:24
Airport Boston Logan International Airport (KBOS)

Arrival

Time 2026-05-07 00:00
Airport Long Island MacArthur Airport (KISP)
Time Latitude Longitude Altitude Speed Heading
2026-05-06 22:34 42.36614 -71.01472 25 ft 0 kts 215°
2026-05-06 23:10 42.36624 -71.01462 28 ft 3 kts 224°
2026-05-06 23:10 42.36637 -71.01445 29 ft 3 kts 216°
2026-05-06 23:10 42.36655 -71.01436 29 ft 3 kts 174°
2026-05-06 23:11 42.36672 -71.01445 26 ft 3 kts 134°
2026-05-06 23:11 42.36681 -71.01467 26 ft 3 kts 93°
2026-05-06 23:11 42.36681 -71.01474 30 ft 0 kts 82°
2026-05-06 23:17 42.36683 -71.01457 29 ft 3 kts 80°
2026-05-06 23:18 42.36687 -71.01436 34 ft 1 kts 77°
2026-05-06 23:18 42.36690 -71.01417 25 ft 4 kts 77°
2026-05-06 23:18 42.36693 -71.01397 25 ft 1 kts 78°
2026-05-06 23:18 42.36693 -71.01394 25 ft 3 kts 78°
2026-05-06 23:19 42.36702 -71.01338 26 ft 5 kts 78°
2026-05-06 23:19 42.36710 -71.01288 27 ft 7 kts 75°
2026-05-06 23:19 42.36732 -71.01245 28 ft 5 kts 28°
2026-05-06 23:19 42.36773 -71.01255 27 ft 8 kts 328°
2026-05-06 23:20 42.36824 -71.01283 27 ft 7 kts
2026-05-06 23:20 42.36871 -71.01239 27 ft 10 kts 41°
2026-05-06 23:20 42.36930 -71.01171 27 ft 12 kts 40°
2026-05-06 23:20 42.36999 -71.01103 26 ft 15 kts 28°
2026-05-06 23:21 42.37093 -71.01040 24 ft 15 kts 26°
2026-05-06 23:21 42.37190 -71.00976 24 ft 19 kts 25°
2026-05-06 23:21 42.37310 -71.00902 23 ft 19 kts 22°
2026-05-06 23:21 42.37424 -71.00845 24 ft 16 kts 20°
2026-05-06 23:22 42.37526 -71.00795 26 ft 19 kts 20°
2026-05-06 23:22 42.37650 -71.00735 28 ft 17 kts 19°
2026-05-06 23:22 42.37751 -71.00686 31 ft 14 kts 20°
2026-05-06 23:22 42.37833 -71.00632 30 ft 13 kts 52°
2026-05-06 23:23 42.37825 -71.00529 29 ft 10 kts 110°
2026-05-06 23:23 42.37788 -71.00476 27 ft 8 kts 178°
2026-05-06 23:23 42.37622 -71.00554 29 ft 52 kts 199°
2026-05-06 23:23 42.37059 -71.00825 25 ft 119 kts 200°
2026-05-06 23:24 42.36199 -71.01252 409 ft 134 kts 200°
2026-05-06 23:24 42.35255 -71.01446 984 ft 143 kts 182°
2026-05-06 23:24 42.34246 -71.01120 1584 ft 156 kts 167°
2026-05-06 23:24 42.33292 -71.00231 2193 ft 182 kts 150°
2026-05-06 23:25 42.32360 -70.98907 2691 ft 209 kts 142°
2026-05-06 23:25 42.31479 -70.97223 3139 ft 236 kts 123°
2026-05-06 23:25 42.31209 -70.94952 3643 ft 260 kts 91°
2026-05-06 23:25 42.31486 -70.92419 4189 ft 283 kts 82°
2026-05-06 23:26 42.31898 -70.89732 4735 ft 301 kts 81°
2026-05-06 23:26 42.32336 -70.86924 5232 ft 307 kts 80°
2026-05-06 23:26 42.32766 -70.84076 5870 ft 311 kts 80°
2026-05-06 23:26 42.33081 -70.81178 6516 ft 311 kts 92°
2026-05-06 23:27 42.32716 -70.78350 7147 ft 303 kts 115°
2026-05-06 23:27 42.31907 -70.75717 7792 ft 303 kts 120°
2026-05-06 23:27 42.31012 -70.73132 8447 ft 305 kts 121°
2026-05-06 23:27 42.30012 -70.70599 9122 ft 305 kts 130°
2026-05-06 23:28 42.28605 -70.68522 9767 ft 297 kts 150°
2026-05-06 23:28 42.27457 -70.67570 10141 ft 290 kts 162°
2026-05-06 23:28 42.24886 -70.66252 10932 ft 303 kts 169°
2026-05-06 23:28 42.22857 -70.65353 11529 ft 316 kts 169°
2026-05-06 23:29 42.20699 -70.64397 12148 ft 329 kts 168°
2026-05-06 23:29 42.18518 -70.63418 12756 ft 340 kts 168°
2026-05-06 23:29 42.16235 -70.62434 13380 ft 348 kts 172°
2026-05-06 23:29 42.13829 -70.61975 13879 ft 351 kts 186°
2026-05-06 23:30 42.11403 -70.62436 14319 ft 356 kts 199°
2026-05-06 23:30 42.09781 -70.63075 14613 ft 363 kts 202°
2026-05-06 23:30 42.07477 -70.64098 15024 ft 372 kts 203°
2026-05-06 23:30 42.04896 -70.65266 15487 ft 381 kts 202°
2026-05-06 23:31 42.02353 -70.66408 15944 ft 389 kts 202°
2026-05-06 23:31 41.99754 -70.67563 16395 ft 396 kts 202°
2026-05-06 23:31 41.97126 -70.68724 16866 ft 400 kts 202°
2026-05-06 23:31 41.94470 -70.69893 17335 ft 403 kts 202°
2026-05-06 23:32 41.91792 -70.71068 17805 ft 406 kts 202°
2026-05-06 23:32 41.89102 -70.72248 18269 ft 408 kts 202°
2026-05-06 23:32 41.86391 -70.73436 18692 ft 411 kts 202°
2026-05-06 23:32 41.83698 -70.74753 19146 ft 412 kts 207°
2026-05-06 23:33 41.81112 -70.76393 19599 ft 414 kts 211°
2026-05-06 23:33 41.78552 -70.78231 19805 ft 417 kts 212°
2026-05-06 23:33 41.76024 -70.80160 19854 ft 418 kts 213°
2026-05-06 23:33 41.73476 -70.82143 19852 ft 419 kts 213°
2026-05-06 23:34 41.70985 -70.84078 19849 ft 419 kts 213°
2026-05-06 23:34 41.68456 -70.86023 19847 ft 419 kts 213°
2026-05-06 23:34 41.65923 -70.87949 19850 ft 419 kts 213°
2026-05-06 23:34 41.63383 -70.89862 19851 ft 419 kts 213°
2026-05-06 23:35 41.60833 -70.91773 19851 ft 419 kts 213°
2026-05-06 23:35 41.58300 -70.93664 19850 ft 419 kts 213°
2026-05-06 23:35 41.55823 -70.95724 19853 ft 416 kts 219°
2026-05-06 23:35 41.53694 -70.98237 19858 ft 413 kts 227°
2026-05-06 23:36 41.51735 -71.01009 19855 ft 412 kts 230°
2026-05-06 23:36 41.49864 -71.03909 19859 ft 411 kts 232°
2026-05-06 23:36 41.48054 -71.06858 19863 ft 411 kts 233°
2026-05-06 23:36 41.46262 -71.09833 19862 ft 411 kts 233°
2026-05-06 23:37 41.44471 -71.12813 19868 ft 410 kts 233°
2026-05-06 23:37 41.42681 -71.15773 19863 ft 410 kts 233°
2026-05-06 23:37 41.40882 -71.18723 19861 ft 410 kts 233°
2026-05-06 23:37 41.39075 -71.21668 19860 ft 410 kts 233°
2026-05-06 23:38 41.37261 -71.24610 19860 ft 410 kts 233°
2026-05-06 23:38 41.35451 -71.27537 19862 ft 410 kts 232°
2026-05-06 23:38 41.33632 -71.30473 19900 ft 410 kts 233°
2026-05-06 23:38 41.31819 -71.33395 19752 ft 409 kts 232°
2026-05-06 23:39 41.30031 -71.36276 19516 ft 408 kts 232°
2026-05-06 23:39 41.28222 -71.39189 19286 ft 408 kts 232°
2026-05-06 23:39 41.26419 -71.42089 19040 ft 406 kts 232°
2026-05-06 23:39 41.24619 -71.44982 18803 ft 405 kts 232°
2026-05-06 23:40 41.22827 -71.47861 18569 ft 404 kts 232°
2026-05-06 23:40 41.21037 -71.50733 18341 ft 403 kts 232°
2026-05-06 23:40 41.19250 -71.53597 18109 ft 402 kts 232°
2026-05-06 23:40 41.17431 -71.56407 17835 ft 401 kts 228°
2026-05-06 23:41 41.15418 -71.58971 17513 ft 400 kts 225°
2026-05-06 23:41 41.13341 -71.61428 17203 ft 399 kts 223°
2026-05-06 23:41 41.11235 -71.63810 16890 ft 397 kts 223°
2026-05-06 23:41 41.09114 -71.66153 16580 ft 395 kts 222°
2026-05-06 23:42 41.06998 -71.68468 16261 ft 393 kts 222°
2026-05-06 23:42 41.04919 -71.70738 15868 ft 390 kts 222°
2026-05-06 23:42 41.02855 -71.72994 15466 ft 378 kts 223°
2026-05-06 23:42 41.00866 -71.75173 15067 ft 365 kts 223°
2026-05-06 23:43 40.99063 -71.77450 14679 ft 354 kts 231°
2026-05-06 23:43 40.97604 -71.80041 14291 ft 348 kts 240°
2026-05-06 23:43 40.96583 -71.82930 13922 ft 346 kts 251°
2026-05-06 23:43 40.95984 -71.85997 13535 ft 342 kts 257°
2026-05-06 23:44 40.95649 -71.89073 13111 ft 333 kts 263°
2026-05-06 23:44 40.95458 -71.92080 12641 ft 324 kts 264°
2026-05-06 23:44 40.95327 -71.95005 12182 ft 315 kts 265°
2026-05-06 23:44 40.95234 -71.97888 11730 ft 308 kts 265°
2026-05-06 23:45 40.95163 -72.00679 11289 ft 301 kts 265°
2026-05-06 23:45 40.95103 -72.03396 10843 ft 289 kts 266°
2026-05-06 23:45 40.95048 -72.05997 10406 ft 277 kts 266°
2026-05-06 23:45 40.94993 -72.08468 9960 ft 268 kts 265°
2026-05-06 23:46 40.94936 -72.10885 9544 ft 258 kts 265°
2026-05-06 23:46 40.94878 -72.13216 9124 ft 250 kts 266°
2026-05-06 23:46 40.94818 -72.15502 8711 ft 248 kts 266°
2026-05-06 23:46 40.94757 -72.17777 8300 ft 248 kts 265°
2026-05-06 23:47 40.94696 -72.20049 7905 ft 247 kts 265°
2026-05-06 23:47 40.94634 -72.22325 7507 ft 246 kts 266°
2026-05-06 23:47 40.94573 -72.24579 7108 ft 244 kts 266°
2026-05-06 23:47 40.94513 -72.26814 6732 ft 244 kts 266°
2026-05-06 23:48 40.94452 -72.29066 6349 ft 244 kts 266°
2026-05-06 23:48 40.94391 -72.31304 6051 ft 243 kts 266°
2026-05-06 23:48 40.94330 -72.33539 6001 ft 243 kts 266°
2026-05-06 23:48 40.94268 -72.35771 5997 ft 243 kts 266°
2026-05-06 23:49 40.94206 -72.38010 6005 ft 244 kts 266°
2026-05-06 23:49 40.94144 -72.40253 6002 ft 244 kts 266°
2026-05-06 23:49 40.94081 -72.42498 6001 ft 244 kts 266°
2026-05-06 23:49 40.94017 -72.44736 6002 ft 244 kts 266°
2026-05-06 23:50 40.93953 -72.46984 5916 ft 244 kts 266°
2026-05-06 23:50 40.93823 -72.51460 5193 ft 243 kts 266°
2026-05-06 23:50 40.93758 -72.53694 4833 ft 241 kts 266°
2026-05-06 23:51 40.93697 -72.55798 4474 ft 240 kts 266°
2026-05-06 23:51 40.93633 -72.58025 4095 ft 238 kts 266°
2026-05-06 23:51 40.93570 -72.60174 3730 ft 236 kts 266°
2026-05-06 23:51 40.93505 -72.62345 3356 ft 237 kts 266°
2026-05-06 23:52 40.93437 -72.64526 3070 ft 237 kts 266°
2026-05-06 23:52 40.93372 -72.66694 3008 ft 236 kts 266°
2026-05-06 23:52 40.93306 -72.68870 3003 ft 235 kts 266°
2026-05-06 23:52 40.93228 -72.71018 2997 ft 233 kts 263°
2026-05-06 23:53 40.92970 -72.73127 2831 ft 232 kts 258°
2026-05-06 23:53 40.92622 -72.75212 2634 ft 232 kts 257°
2026-05-06 23:53 40.92274 -72.77295 2427 ft 231 kts 257°
2026-05-06 23:53 40.91930 -72.79362 2209 ft 230 kts 256°
2026-05-06 23:54 40.91601 -72.81432 2026 ft 230 kts 257°
2026-05-06 23:54 40.91284 -72.83489 1992 ft 224 kts 257°
2026-05-06 23:54 40.90974 -72.85459 1989 ft 214 kts 257°
2026-05-06 23:54 40.90663 -72.87349 1993 ft 209 kts 257°
2026-05-06 23:55 40.90359 -72.89197 2001 ft 203 kts 256°
2026-05-06 23:55 40.90081 -72.90987 2023 ft 196 kts 257°
2026-05-06 23:55 40.89812 -72.92760 2006 ft 195 kts 257°
2026-05-06 23:55 40.89564 -72.94411 1990 ft 176 kts 257°
2026-05-06 23:56 40.89321 -72.95943 2002 ft 167 kts 256°
2026-05-06 23:56 40.88966 -72.97400 1990 ft 166 kts 244°
2026-05-06 23:56 40.88333 -72.98670 1996 ft 166 kts 232°
2026-05-06 23:56 40.87552 -72.99779 1987 ft 163 kts 228°
2026-05-06 23:57 40.86768 -73.00806 1939 ft 152 kts 228°
2026-05-06 23:57 40.86065 -73.01730 1750 ft 132 kts 229°
2026-05-06 23:57 40.85461 -73.02531 1565 ft 118 kts 229°
2026-05-06 23:57 40.84892 -73.03286 1413 ft 114 kts 229°
2026-05-06 23:58 40.84340 -73.04017 1258 ft 112 kts 227°
2026-05-06 23:58 40.83788 -73.04746 1110 ft 113 kts 227°
2026-05-06 23:58 40.83235 -73.05477 957 ft 114 kts 227°
2026-05-06 23:58 40.82702 -73.06183 819 ft 119 kts 223°
2026-05-06 23:59 40.82107 -73.06965 670 ft 122 kts 225°
2026-05-06 23:59 40.81515 -73.07744 468 ft 120 kts 224°
2026-05-06 23:59 40.80914 -73.08542 336 ft 123 kts 225°
2026-05-06 23:59 40.80319 -73.09339 152 ft 121 kts 225°
2026-05-07 00:00 40.79746 -73.10087 103 ft 100 kts 225°
2026-05-07 00:00 40.79384 -73.10564 103 ft 48 kts 225°
2026-05-07 00:00 40.79223 -73.10719 103 ft 17 kts 183°
2026-05-07 00:00 40.79157 -73.10718 100 ft 7 kts 178°
2026-05-07 00:01 40.79116 -73.10671 100 ft 6 kts 104°
2026-05-07 00:01 40.79114 -73.10611 100 ft 7 kts 90°
2026-05-07 00:01 40.79112 -73.10520 99 ft 12 kts 91°
2026-05-07 00:01 40.79111 -73.10413 99 ft 12 kts 90°
2026-05-07 00:02 40.79111 -73.10305 98 ft 12 kts 90°
2026-05-07 00:02 40.79112 -73.10197 98 ft 12 kts 89°
2026-05-07 00:02 40.79112 -73.10087 100 ft 12 kts 90°
2026-05-07 00:02 40.79112 -73.09976 98 ft 12 kts 90°
2026-05-07 00:03 40.79112 -73.09862 99 ft 12 kts 90°
2026-05-07 00:03 40.79109 -73.09760 99 ft 8 kts 104°
2026-05-07 00:03 40.79068 -73.09729 100 ft 7 kts 180°
2026-05-07 00:03 40.79048 -73.09729 100 ft 0 kts 180°